Date,TemperatureHighF,TemperatureAvgF,TemperatureLowF,DewpointHighF,DewpointAvgF,DewpointLowF,HumidityHigh,HumidityAvg,HumidityLow,PressureMaxIn,PressureMinIn,WindSpeedMaxMPH,WindSpeedAvgMPH,GustSpeedMaxMPH,PrecipitationSumIn
2013-2-1,67,52,36,40,32,24,72,48,27,30.36,30.15,19,8,24,0.00
2013-2-2,70,56,44,52,44,36,92,66,46,30.31,30.17,16,7,22,0.00
2013-2-3,68,56,36,44,32,21,80,44,18,30.35,30.01,17,7,21,0.00
2013-2-4,74,62,56,58,53,44,94,74,47,30.01,29.80,21,10,23,0.01
2013-2-5,75,60,47,53,48,40,90,66,33,30.00,29.86,13,6,14,0.00
2013-2-6,72,62,56,60,55,51,93,78,61,30.01,29.83,15,6,17,0.01
2013-2-7,80,65,56,59,51,35,97,67,23,30.10,29.85,19,12,24,0.00
2013-2-8,58,50,43,44,37,28,75,64,32,30.24,30.10,18,12,23,0.00
2013-2-17,68,61,58,50,43,32,73,53,28,29.99,29.94,25,21,33,0.00
2013-2-18,77,64,52,57,44,18,82,54,13,30.11,29.83,25,18,34,0.00
2013-2-19,62,53,42,32,28,20,61,40,21,30.29,30.10,14,9,19,0.00
2013-2-20,56,50,47,55,41,30,98,73,40,30.14,29.67,17,12,20,0.04
2013-2-21,71,63,49,64,39,16,99,52,12,29.87,29.58,28,14,32,0.05
2013-2-22,53,44,34,38,31,26,87,61,38,30.09,29.83,16,9,20,0.00
2013-2-23,64,46,32,36,31,28,84,58,28,30.07,29.89,10,4,15,0.00
2013-2-24,71,55,36,55,42,32,86,65,40,29.93,29.57,20,11,26,0.00
2013-2-25,60,51,43,58,36,22,96,60,28,29.83,29.55,38,22,48,0.02
2013-2-26,61,48,36,31,28,25,71,50,27,29.95,29.83,23,10,35,0.00
2013-2-27,58,48,39,32,25,19,69,43,25,30.24,29.85,23,11,29,0.00
2013-2-28,58,44,35,30,25,22,75,50,25,30.34,30.18,14,8,17,0.00